📊 Raw Sensor Data
Showing records 38151 to 38175 of 84,925 total
| ID | Distance (ft) | Battery V | Battery A | Int Temp (°F) | Int Humid (%) | Ext Temp (°F) | Solar V | RSSI | SNR | Time Stamp |
|---|---|---|---|---|---|---|---|---|---|---|
| 46787 | 15.3 | 3.77 | -5 | 60 | 47 | 61 | 0.00 | -70 | 8 | 07/19/2025 10:45 PM |
| 46786 | 15.0 | 3.77 | -5 | 61 | 47 | 62 | 0.00 | -69 | 8 | 07/19/2025 10:30 PM |
| 46785 | 15.0 | 3.77 | -5 | 62 | 48 | 63 | 0.00 | -69 | 8 | 07/19/2025 10:15 PM |
| 46784 | 15.0 | 3.91 | -5 | 62 | 49 | 63 | 0.00 | -70 | 8 | 07/19/2025 10:00 PM |
| 46783 | 15.0 | 3.91 | -5 | 63 | 50 | 63 | 0.00 | -70 | 8 | 07/19/2025 09:45 PM |
| 46782 | 15.0 | 3.91 | -5 | 64 | 51 | 64 | 0.00 | -69 | 8 | 07/19/2025 09:30 PM |
| 46781 | 15.0 | 3.91 | -5 | 66 | 52 | 66 | 0.00 | -70 | 8 | 07/19/2025 09:15 PM |
| 46780 | 15.0 | 3.91 | -5 | 67 | 54 | 67 | 0.00 | -71 | 8 | 07/19/2025 09:00 PM |
| 46779 | 15.0 | 3.77 | -5 | 69 | 56 | 68 | 0.40 | -70 | 8 | 07/19/2025 08:45 PM |
| 46778 | 15.0 | 3.77 | -9 | 73 | 58 | 69 | 1.50 | -71 | 8 | 07/19/2025 08:30 PM |
| 46777 | 15.1 | 3.93 | 0 | 79 | 55 | 73 | 4.50 | -71 | 8 | 07/19/2025 08:15 PM |
| 46776 | 15.1 | 3.95 | 0 | 83 | 55 | 77 | 4.50 | -72 | 8 | 07/19/2025 08:00 PM |
| 46775 | 15.1 | 3.83 | 5 | 87 | 54 | 79 | 4.60 | -71 | 7 | 07/19/2025 07:45 PM |
| 46774 | 15.2 | 3.84 | 7 | 90 | 53 | 81 | 4.50 | -71 | 7 | 07/19/2025 07:30 PM |
| 46773 | 15.2 | 4.01 | 0 | 91 | 53 | 84 | 4.50 | -71 | 8 | 07/19/2025 07:15 PM |
| 46772 | 15.1 | 3.94 | 17 | 94 | 52 | 86 | 4.60 | -72 | 7 | 07/19/2025 07:00 PM |
| 46771 | 15.2 | 3.90 | 0 | 95 | 53 | 87 | 5.10 | -72 | 7 | 07/19/2025 06:45 PM |
| 46770 | 15.2 | 3.90 | 0 | 98 | 51 | 88 | 5.10 | -70 | 8 | 07/19/2025 06:30 PM |
| 46769 | 15.2 | 3.90 | 0 | 100 | 50 | 90 | 5.10 | -71 | 8 | 07/19/2025 06:15 PM |
| 46768 | 15.2 | 3.91 | 0 | 100 | 50 | 91 | 5.10 | -71 | 7 | 07/19/2025 06:00 PM |
| 46767 | 15.2 | 3.95 | 0 | 101 | 49 | 92 | 5.10 | -72 | 8 | 07/19/2025 05:45 PM |
| 46766 | 15.2 | 3.90 | 0 | 102 | 48 | 93 | 5.10 | -71 | 8 | 07/19/2025 05:30 PM |
| 46765 | 15.2 | 3.99 | 0 | 102 | 47 | 92 | 5.10 | -72 | 8 | 07/19/2025 05:15 PM |
| 46764 | 15.2 | 3.91 | 0 | 103 | 46 | 94 | 5.10 | -70 | 8 | 07/19/2025 05:00 PM |
| 46763 | 15.2 | 3.91 | 0 | 102 | 45 | 93 | 5.10 | -70 | 7 | 07/19/2025 04:45 PM |